User: anonymous   Login
Location: Bijele Vode
(45.2833°N, 16.2000°E)
Time: 00:35:09
(UTC+00:00)
Language:

Lacrosse 5 rocket - Orbit

View from above orbital plane
View from above orbital plane
View from above satellite
View from above satellite

Ground track
Ground track

The orbit data is extracted from the following two-line orbital elements,

1 28647U 05016B   20331.31177625 +.00000699 +00000-0 +57548-4 0  9997
2 28647 056.9967 302.1740 0129619 076.0718 285.4697 15.06138945084347
Epoch (UTC): 26 November 2020 07:28:57
Eccentricity: 0.0129619
inclination: 56.9967°
perigee height: 458 km
apogee height: 638 km
right ascension of ascending node: 302.1740°
argument of perigee: 76.0718°
revolutions per day: 15.06138945
mean anomaly at epoch: 285.4697°
orbit number at epoch: 8434

The dashed part of the orbit path shows where the satellite is in the earth's shadow,  

DLR